(271803) = 2004 RR311 = 2004 TB86

Discovered at Kitt Peak on 2004-10-05 by Spacewatch.

Orbit

Orbit type: Main Belt

Note: WebGL enabled browser required.

epoch2023-09-13.0
epoch JD2460200.5
perihelion date2019-04-28.32668
perihelion JD2458601.82668
argument of perihelion (°)219.75699
ascending node (°)186.76029
inclination (°)3.62262
eccentricity0.0990734
perihelion distance (AU)2.5396946
Tisserand w.r.t. Jupiter3.3
ΔV w.r.t. Earth (km/sec)10.0
semimajor axis (AU)2.8189805
mean anomaly (°)332.90894
mean daily motion (°/day)0.20824080
aphelion distance (AU)3.098
period (years)4.73
P-vector [x]0.68828623
P-vector [y]0.68061773
P-vector [z]0.25104098
Q-vector [x]-0.72540109
Q-vector [y]0.64927434
Q-vector [z]0.22855216
absolute magnitude16.48
phase slope0.15
uncertainty0
referenceMPEC 2024-A158
observations used370
oppositions14
arc length (days)7060
first opposition used2004
last opposition used2024
residual rms (arc-secs)0.66
perturbers coarse indicatorM-v
perturbers precise indicator003Ek
first observation date used2004-09-14.0
last observation date used2024-01-13.0
computer nameMPCLINUX
JD of orbit computation2456581.584373
perihelion JD uncertainty (days)1.9009E-04
argument of perihelion uncertainty (°)6.8164E-05
ascending node uncertainty (°)5.6718E-05
inclination uncertainty (°)4.4885E-06
eccentricity uncertainty 3.4562E-08
perihelion distance uncertainty (AU)1.0970E-07
Minimum Orbit Intersection Distances (in AU)
for orbit epoch: 2460200.5, reference: E2024-AF8
Mercury2.21993
Venus1.81677
Earth1.54928
Mars1.04235
Jupiter2.2508
Saturn6.40354
Uranus15.4696
Neptune27.2722

Observations

379 total observations over interval: 2004 09 14.33091 – 2024 01 13.109360
These data are available for download (format description).

Date (UT) J2000 RA J2000 Dec Magn Location Ref
2004 09 14.33091 01 07 17.95 +07 01 55.5 19.7   644 – Palomar Mountain/NEAT MPS 114588
2004 09 14.33351 01 07 17.85 +07 01 54.5 19.6   644 – Palomar Mountain/NEAT MPS 114588
2004 09 14.34266 01 07 17.56 +07 01 52.1 19.8   644 – Palomar Mountain/NEAT MPS 114588
2004 09 14.34531 01 07 17.46 +07 01 51.1 19.5   644 – Palomar Mountain/NEAT MPS 114588
2004 09 14.35352 01 07 17.18 +07 01 48.5 19.7   644 – Palomar Mountain/NEAT MPS 114588
2004 09 14.36178 01 07 16.96 +07 01 46.2 19.5   644 – Palomar Mountain/NEAT MPS 114588
2004 10 05.17328 00 53 00.24 +04 58 31.7 19.8 V 691 – Steward Observatory, Kitt Peak-Spacewatch MPS 117791
2004 10 05.20176 00 52 58.88 +04 58 20.3 19.6 V 691 – Steward Observatory, Kitt Peak-Spacewatch MPS 117791
2004 10 05.22977 00 52 57.52 +04 58 09.6 19.8 V 691 – Steward Observatory, Kitt Peak-Spacewatch MPS 117791
2004 10 07.28264 00 51 21.59 +04 44 43.1 19.9   704 – Lincoln Laboratory ETS, New Mexico MPS 118547
2004 10 07.29408 00 51 21.28 +04 44 39.0 20.1   704 – Lincoln Laboratory ETS, New Mexico MPS 118547
2004 10 07.30508 00 51 20.63 +04 44 35.3 20.0   704 – Lincoln Laboratory ETS, New Mexico MPS 118547
2004 10 07.31618 00 51 20.13 +04 44 31.5 19.4   704 – Lincoln Laboratory ETS, New Mexico MPS 118547
2004 10 09.17909 00 49 53.51 +04 32 21.6 20.1 V 691 – Steward Observatory, Kitt Peak-Spacewatch MPS 117791
2004 10 09.20639 00 49 52.20 +04 32 11.0 20.0 V 691 – Steward Observatory, Kitt Peak-Spacewatch MPS 117791
2004 10 09.23337 00 49 50.84 +04 32 00.7 20.0 V 691 – Steward Observatory, Kitt Peak-Spacewatch MPS 117791
2004 10 12.24718 00 47 31.61 +04 12 29.7 19.1   704 – Lincoln Laboratory ETS, New Mexico MPS 118547
2004 10 12.28040 00 47 29.95 +04 12 17.0 19.7   704 – Lincoln Laboratory ETS, New Mexico MPS 118547
2004 10 12.29148 00 47 29.48 +04 12 11.7 20.3   704 – Lincoln Laboratory ETS, New Mexico MPS 118547
2004 10 14.28814 00 45 58.75 +03 59 28.6 19.1   644 – Palomar Mountain/NEAT MPS 118547
2004 10 14.30928 00 45 57.80 +03 59 20.4 19.0   644 – Palomar Mountain/NEAT MPS 118547
2004 10 14.34688 00 45 56.02 +03 59 06.5 19.2   644 – Palomar Mountain/NEAT MPS 118547
2004 11 04.08566 00 33 22.28 +02 10 20.9 20.4 V 691 – Steward Observatory, Kitt Peak-Spacewatch MPS 118547
2004 11 04.10454 00 33 21.77 +02 10 16.7 20.3 V 691 – Steward Observatory, Kitt Peak-Spacewatch MPS 118547
2004 11 04.12181 00 33 21.33 +02 10 12.7 20.4 V 691 – Steward Observatory, Kitt Peak-Spacewatch MPS 118547
2005 11 10.475037 09 02 22.829 +12 51 58.53 21.51 V 645 – Apache Point-Sloan Digital Sky Survey MPS 390496
2005 11 10.478509 09 02 22.982 +12 51 57.59 22.26   645 – Apache Point-Sloan Digital Sky Survey MPS 390496
2006 01 30.23892 08 47 49.77 +13 00 56.1 19.6 V 703 – Catalina Sky Survey MPS 163251
2006 01 30.24649 08 47 49.34 +13 00 58.5 20.1 V 703 – Catalina Sky Survey MPS 163251
2006 01 30.25410 08 47 48.87 +13 00 59.6 20.3 V 703 – Catalina Sky Survey MPS 163251
2006 01 30.26173 08 47 48.48 +13 01 02.2 19.9 V 703 – Catalina Sky Survey MPS 163251
2006 02 03.26975 08 44 15.90 +13 18 33.4 20.1 V G96 – Mt. Lemmon Survey MPS 163251
2006 02 03.27596 08 44 15.57 +13 18 35.3 19.9 V G96 – Mt. Lemmon Survey MPS 163251
2006 02 03.28226 08 44 15.25 +13 18 36.2 20.1 V G96 – Mt. Lemmon Survey MPS 163251
2006 02 03.28839 08 44 14.89 +13 18 38.5 20.0 V G96 – Mt. Lemmon Survey MPS 163251
2007 04 22.33730 14 18 35.71 -11 13 25.2 20.6 V G96 – Mt. Lemmon Survey MPS 208076
2007 04 22.34442 14 18 35.42 -11 13 22.5 21.0 V G96 – Mt. Lemmon Survey MPS 208076
2007 04 22.35156 14 18 35.06 -11 13 20.2 21.0 V G96 – Mt. Lemmon Survey MPS 208076
2007 04 22.35869 14 18 34.70 -11 13 18.1 21.1 V G96 – Mt. Lemmon Survey MPS 208076
2009 09 22.35956 03 23 49.66 +16 11 46.4 20.8 V G96 – Mt. Lemmon Survey MPS 296904
2009 09 22.37079 03 23 49.70 +16 11 45.2 21.0 V G96 – Mt. Lemmon Survey MPS 296904
2009 09 22.38208 03 23 49.74 +16 11 44.1 20.9 V G96 – Mt. Lemmon Survey MPS 296904
2009 09 22.39312 03 23 49.77 +16 11 42.9 21.0 V G96 – Mt. Lemmon Survey MPS 296904
2009 10 23.36292 03 13 07.14 +14 27 35.7 19.9 V G96 – Mt. Lemmon Survey MPS 300650
2009 10 23.36904 03 13 06.85 +14 27 34.0 19.7 V G96 – Mt. Lemmon Survey MPS 300650
2009 10 23.37523 03 13 06.60 +14 27 32.4 20.0 V G96 – Mt. Lemmon Survey MPS 300650
2009 10 23.38132 03 13 06.31 +14 27 30.5 19.9 V G96 – Mt. Lemmon Survey MPS 300650
2009 10 26.30800 03 10 57.20 +14 13 36.4 19.9 V 691 – Steward Observatory, Kitt Peak-Spacewatch MPS 300650
2009 10 26.32519 03 10 56.41 +14 13 31.4 19.7 V 691 – Steward Observatory, Kitt Peak-Spacewatch MPS 300650
2009 10 26.34241 03 10 55.58 +14 13 26.6 19.8 V 691 – Steward Observatory, Kitt Peak-Spacewatch MPS 300650
2011 01 17.46399 10 48 27.43 +04 11 14.6 20.0 V G96 – Mt. Lemmon Survey MPS 366980
2011 01 17.47274 10 48 27.32 +04 11 15.6 19.7 V G96 – Mt. Lemmon Survey MPS 366980
2011 01 17.48143 10 48 27.14 +04 11 16.5 20.1 V G96 – Mt. Lemmon Survey MPS 366980
2011 01 17.49020 10 48 26.96 +04 11 17.7 21.2 V G96 – Mt. Lemmon Survey MPS 366980
2011 01 30.41123 10 42 54.049 +04 46 11.67 21.6 w F51 – Pan-STARRS 1, Haleakala MPS 379983
2011 01 30.42596 10 42 53.528 +04 46 15.02 21.4 w F51 – Pan-STARRS 1, Haleakala MPS 379983
2011 01 30.44205 10 42 52.950 +04 46 18.61 21.4 w F51 – Pan-STARRS 1, Haleakala MPS 379983
2011 01 30.45684 10 42 52.431 +04 46 21.80 21.2 w F51 – Pan-STARRS 1, Haleakala MPS 379983
2011 02 05.44565 10 39 09.315 +05 10 52.24 21.3 w F51 – Pan-STARRS 1, Haleakala MPS 378609
2011 02 05.45993 10 39 08.718 +05 10 55.91 21.2 w F51 – Pan-STARRS 1, Haleakala MPS 378609
2011 02 05.47436 10 39 08.111 +05 10 59.92 21.2 w F51 – Pan-STARRS 1, Haleakala MPS 378609
2011 02 05.48879 10 39 07.506 +05 11 03.85 21.3 w F51 – Pan-STARRS 1, Haleakala MPS 378609
2011 02 25.26359 10 23 50.64 +06 56 30.3 20.1 V G96 – Mt. Lemmon Survey MPS 371424
2011 02 25.27104 10 23 50.28 +06 56 33.1 20.2 V G96 – Mt. Lemmon Survey MPS 371424
2011 02 25.27862 10 23 49.88 +06 56 35.4 20.2 V G96 – Mt. Lemmon Survey MPS 371424
2011 02 25.28619 10 23 49.48 +06 56 38.1 20.2 V G96 – Mt. Lemmon Survey MPS 371424
2011 03 06.23540 10 16 40.98 +07 48 31.3 21.0 V G96 – Mt. Lemmon Survey MPS 373412
2011 03 06.24123 10 16 40.72 +07 48 33.2 20.4 V G96 – Mt. Lemmon Survey MPS 373412
2011 03 06.24707 10 16 40.44 +07 48 35.3 20.8 V G96 – Mt. Lemmon Survey MPS 373412
2011 03 06.25298 10 16 40.15 +07 48 37.2 20.7 V G96 – Mt. Lemmon Survey MPS 373412
2012 05 27.27766 15 29 06.14 -14 39 25.0 21.5 V G96 – Mt. Lemmon Survey MPS 426437
2012 05 27.28396 15 29 05.82 -14 39 24.6 20.8 V G96 – Mt. Lemmon Survey MPS 426437
2012 05 27.29024 15 29 05.53 -14 39 23.0 22.3 V G96 – Mt. Lemmon Survey MPS 426437
2012 05 27.29664 15 29 05.20 -14 39 21.9 21.2 V G96 – Mt. Lemmon Survey MPS 426437
2012 06 07.28469 15 20 58.423 -14 07 58.77 20.8 r F51 – Pan-STARRS 1, Haleakala MPS 427236
2012 06 07.29198 15 20 58.102 -14 07 57.80 20.7 r F51 – Pan-STARRS 1, Haleakala MPS 427236
2013 06 08.40338 21 53 12.26 -08 48 29.8 21.4 V G96 – Mt. Lemmon Survey MPS 469792
2013 06 08.40949 21 53 12.40 -08 48 28.9 22.1 V G96 – Mt. Lemmon Survey MPS 469792
2013 06 08.41560 21 53 12.55 -08 48 28.3 21.9 V G96 – Mt. Lemmon Survey MPS 469792
2013 06 08.42178 21 53 12.66 -08 48 27.5 21.5 V G96 – Mt. Lemmon Survey MPS 469792
2013 07 15.47546 21 52 10.200 -08 30 24.60 20.8 w F51 – Pan-STARRS 1, Haleakala MPS 472566
2013 07 15.48979 21 52 09.792 -08 30 26.34 20.8 w F51 – Pan-STARRS 1, Haleakala MPS 472566
2013 07 15.50410 21 52 09.391 -08 30 28.16 20.6 w F51 – Pan-STARRS 1, Haleakala MPS 472566
2013 07 15.51841 21 52 08.990 -08 30 29.93 21.0 w F51 – Pan-STARRS 1, Haleakala MPS 472566
2013 08 27.37017 21 21 43.199 -11 27 38.52 20.2 r F51 – Pan-STARRS 1, Haleakala MPS 474815
2013 08 27.38065 21 21 42.710 -11 27 41.50 20.1 r F51 – Pan-STARRS 1, Haleakala MPS 474815
2013 08 27.39155 21 21 42.204 -11 27 44.75 19.9 i F51 – Pan-STARRS 1, Haleakala MPS 474815
2013 08 27.40278 21 21 41.693 -11 27 47.92 20.1 i F51 – Pan-STARRS 1, Haleakala MPS 474815
2013 08 30.34993 21 19 33.991 -11 42 13.53 20.4 w F51 – Pan-STARRS 1, Haleakala MPS 476013
2013 08 30.37797 21 19 32.753 -11 42 21.64 20.2 w F51 – Pan-STARRS 1, Haleakala MPS 476013
